Regional Weather Roundup
Issued by NWS

Home | Current Version | Previous Version | Graphics & Text | Print | Product List | Glossary On
Versions: 1 2 3 4 5 6 7 8 9 10 11 12 13 14 15 16 17 18 19 20 21 22 23 24 25 26 27 28 29 30 31 32 33 34 35 36 37 38 39 40 41 42 43 44 45 46 47 48 49 50
000
ASUS43 KFSD 181810
RWRSD

WEATHER ROUNDUP FOR SOUTH DAKOTA
NATIONAL WEATHER SERVICE SIOUX FALLS SD
100 PM CDT WED OCT 18 2017

NOTE: "FAIR" INDICATES FEW OR NO CLOUDS BELOW 12,000 FEET WITH NO
SIGNIFICANT WEATHER AND/OR OBSTRUCTIONS TO VISIBILITY.


SDZ001>005-009-010-012>017-181900-
NORTHWEST AND NORTH CENTRAL SOUTH DAKOTA

CITY           SKY/WX    TMP DP  RH WIND       PRES   REMARKS
BUFFALO          N/A     57  22  25 W13       30.02S
FAITH            N/A     57  21  24 NW9       30.08R
MOBRIDGE       CLOUDY    59  27  29 NW13      30.01R
$$

SDZ012>016-024>037-041>051-057-063-072>074-181900-
SOUTHWEST AND SOUTH CENTRAL SOUTH DAKOTA

CITY           SKY/WX    TMP DP  RH WIND       PRES   REMARKS
RAPID CTY ARPT SUNNY     60  22  23 N10       30.10F
PIERRE         SUNNY     63  27  25 N12G21    30.04R
CUSTER         SUNNY     60  21  22 VRB7G17   30.13S
ELLSWORTH AFB  SUNNY     58  21  23 N13       30.10F
PHILIP         SUNNY     62  24  23 N10       30.09S
PINE RIDGE     SUNNY     64  29  26 N6        30.12R
SPEARFISH      FAIR      55  25  30 N5        30.11F
WINNER         FAIR      68  34  28 N17G26    30.04R
$$

SDZ004>011-016>023-039-040-181900-
NORTHEAST SOUTH DAKOTA

CITY           SKY/WX    TMP DP  RH WIND       PRES   REMARKS
ABERDEEN       CLOUDY    58  25  28 NW12      29.99R
WATERTOWN      SUNNY     63  32  31 N18       29.93R
BROOKINGS      SUNNY     67  34  29 N17G24    29.93R
SISSETON         N/A     62  20  19 N22G32    29.91R
$$

SDZ017-020-022-023-036>040-048>070-181900-
SOUTHEAST SOUTH DAKOTA

CITY           SKY/WX    TMP DP  RH WIND       PRES   REMARKS
SIOUX FALLS    MOSUNNY   70  40  33 N20G26    29.93R
HURON          SUNNY     66  30  26 N17G28    29.97R
CHAMBERLAIN    SUNNY     68  33  26 N13       30.02R
MITCHELL       SUNNY     69  34  27 N18G26    29.98R
YANKTON        SUNNY     70  40  33 N16G24    29.94R
$$

ABBREVIATIONS USED IN REMARKS
   TC - TEMPERATURE IN CELSIUS
  WCI - WIND CHILL INDEX
   HX - HEAT INDEX
  VSB - VISIBILITY




USA.gov is the U.S. government's official web portal to all federal, state and local government web resources and services.